When you browse on this site, cookies collect data to enhance your experience and personalize the content and advertising you see.
Visit our Privacy Policy to learn more. By continuing to use the site, you agree to this use of cookies and data.

Météo par heure à Homs

Ce jour, 7 Juillet, Mardi

Heure Température Précipitation Vent Pression Humidité
00:00 +23°C° 0 mm 4 m/s 708 mmHg 81%
01:00 +23°C° 0 mm 5 m/s 708 mmHg 83%
02:00 +22°C° 0 mm 5 m/s 708 mmHg 85%
03:00 +22°C° 0 mm 4 m/s 708 mmHg 85%
04:00 +22°C° 0 mm 4 m/s 708 mmHg 85%
05:00 +22°C° 0 mm 3 m/s 708 mmHg 85%
06:00 +26°C° 0 mm 4 m/s 708 mmHg 73%
07:00 +28°C° 0 mm 5 m/s 709 mmHg 62%
08:00 +30°C° 0 mm 6 m/s 709 mmHg 50%
09:00 +33°C° 0 mm 7 m/s 709 mmHg 44%
10:00 +35°C° 0 mm 8 m/s 710 mmHg 39%
11:00 +37°C° 0 mm 9 m/s 710 mmHg 33%
12:00 +37°C° 0 mm 9 m/s 710 mmHg 34%
13:00 +36°C° 0 mm 10 m/s 710 mmHg 35%
14:00 +36°C° 0 mm 11 m/s 710 mmHg 35%
15:00 +33°C° 0 mm 10 m/s 710 mmHg 40%
16:00 +32°C° 0 mm 10 m/s 709 mmHg 44%
17:00 +29°C° 0 mm 9 m/s 709 mmHg 48%
18:00 +28°C° 0 mm 8 m/s 710 mmHg 56%
19:00 +26°C° 0 mm 7 m/s 710 mmHg 64%
20:00 +24°C° 0 mm 6 m/s 710 mmHg 73%
21:00 +23°C° 0 mm 6 m/s 710 mmHg 72%
22:00 +23°C° 0 mm 5 m/s 710 mmHg 71%
23:00 +22°C° 0 mm 5 m/s 710 mmHg 70%

Demain, 8 Juillet, Mercredi

Heure Température Précipitation Vent Pression Humidité
00:00 +22°C° 0 mm 5 m/s 710 mmHg 71%
01:00 +22°C° 0 mm 5 m/s 710 mmHg 73%
02:00 +21°C° 0 mm 5 m/s 710 mmHg 74%
03:00 +21°C° 0 mm 5 m/s 710 mmHg 72%
04:00 +21°C° 0 mm 4 m/s 711 mmHg 70%
05:00 +21°C° 0 mm 4 m/s 711 mmHg 68%
06:00 +25°C° 0 mm 5 m/s 711 mmHg 55%
07:00 +28°C° 0 mm 6 m/s 711 mmHg 43%
08:00 +32°C° 0 mm 7 m/s 712 mmHg 30%
09:00 +33°C° 0 mm 8 m/s 712 mmHg 30%
10:00 +33°C° 0 mm 9 m/s 712 mmHg 30%
11:00 +34°C° 0 mm 10 m/s 712 mmHg 30%
12:00 +34°C° 0 mm 10 m/s 712 mmHg 31%
13:00 +34°C° 0 mm 11 m/s 712 mmHg 32%
14:00 +34°C° 0 mm 11 m/s 711 mmHg 33%
15:00 +32°C° 0 mm 10 m/s 711 mmHg 37%
16:00 +31°C° 0 mm 10 m/s 711 mmHg 40%
17:00 +29°C° 0 mm 9 m/s 711 mmHg 44%
18:00 +27°C° 0 mm 8 m/s 711 mmHg 54%
19:00 +24°C° 0 mm 7 m/s 712 mmHg 65%
20:00 +22°C° 0 mm 5 m/s 712 mmHg 76%
21:00 +22°C° 0 mm 5 m/s 712 mmHg 80%
22:00 +21°C° 0 mm 4 m/s 712 mmHg 83%
23:00 +20°C° 0 mm 4 m/s 712 mmHg 87%

Après-demain, 9 Juillet, Jeudi

Heure Température Précipitation Vent Pression Humidité
00:00 +20°C° 0 mm 3 m/s 712 mmHg 88%
01:00 +20°C° 0 mm 3 m/s 711 mmHg 88%
02:00 +19°C° 0 mm 2 m/s 711 mmHg 89%
03:00 +19°C° 0 mm 2 m/s 711 mmHg 88%
04:00 +19°C° 0 mm 3 m/s 711 mmHg 87%
05:00 +19°C° 0 mm 3 m/s 711 mmHg 86%
06:00 +22°C° 0 mm 3 m/s 711 mmHg 69%
07:00 +26°C° 0 mm 3 m/s 712 mmHg 53%
08:00 +29°C° 0 mm 4 m/s 712 mmHg 36%
09:00 +32°C° 0 mm 4 m/s 712 mmHg 32%
10:00 +34°C° 0 mm 5 m/s 712 mmHg 28%
11:00 +36°C° 0 mm 6 m/s 713 mmHg 23%
12:00 +36°C° 0 mm 6 m/s 712 mmHg 24%
13:00 +36°C° 0 mm 7 m/s 712 mmHg 25%
14:00 +36°C° 0 mm 7 m/s 712 mmHg 26%
15:00 +35°C° 0 mm 7 m/s 711 mmHg 29%
16:00 +34°C° 0 mm 7 m/s 711 mmHg 32%
17:00 +32°C° 0 mm 7 m/s 711 mmHg 36%
18:00 +29°C° 0 mm 6 m/s 711 mmHg 47%
19:00 +26°C° 0 mm 5 m/s 711 mmHg 57%
20:00 +23°C° 0 mm 4 m/s 711 mmHg 68%
21:00 +22°C° 0 mm 3 m/s 711 mmHg 70%
22:00 +22°C° 0 mm 3 m/s 711 mmHg 72%
23:00 +21°C° 0 mm 2 m/s 711 mmHg 74%

10 Juillet, Vendredi

Heure Température Précipitation Vent Pression Humidité
00:00 +21°C° 0 mm 2 m/s 711 mmHg 73%
01:00 +21°C° 0 mm 1 m/s 710 mmHg 72%
02:00 +21°C° 0 mm 1 m/s 710 mmHg 71%
03:00 +21°C° 0 mm 1 m/s 710 mmHg 69%
04:00 +21°C° 0 mm 1 m/s 710 mmHg 66%
05:00 +21°C° 0 mm 1 m/s 710 mmHg 64%
06:00 +25°C° 0 mm 1 m/s 711 mmHg 52%
07:00 +28°C° 0 mm 1 m/s 712 mmHg 40%
08:00 +32°C° 0 mm 1 m/s 712 mmHg 28%
09:00 +35°C° 0 mm 2 m/s 712 mmHg 24%
10:00 +37°C° 0 mm 3 m/s 713 mmHg 20%
11:00 +39°C° 0 mm 3 m/s 713 mmHg 16%
12:00 +40°C° 0 mm 5 m/s 712 mmHg 17%
13:00 +40°C° 0 mm 7 m/s 712 mmHg 19%
14:00 +40°C° 0 mm 8 m/s 712 mmHg 21%
15:00 +39°C° 0 mm 8 m/s 711 mmHg 23%
16:00 +38°C° 0 mm 8 m/s 711 mmHg 25%
17:00 +35°C° 0 mm 7 m/s 711 mmHg 28%
18:00 +33°C° 0 mm 6 m/s 711 mmHg 36%
19:00 +29°C° 0 mm 4 m/s 711 mmHg 44%
20:00 +27°C° 0 mm 3 m/s 711 mmHg 52%
21:00 +26°C° 0 mm 3 m/s 711 mmHg 53%
22:00 +25°C° 0 mm 2 m/s 711 mmHg 54%
23:00 +24°C° 0 mm 2 m/s 711 mmHg 55%

11 Juillet, Samedi

Heure Température Précipitation Vent Pression Humidité
00:00 +24°C° 0 mm 1 m/s 711 mmHg 54%
01:00 +24°C° 0 mm 1 m/s 710 mmHg 52%
02:00 +22°C° 0 mm 0 m/s 710 mmHg 51%
03:00 +24°C° 0 mm 1 m/s 710 mmHg 48%
04:00 +24°C° 0 mm 1 m/s 710 mmHg 44%
05:00 +24°C° 0 mm 1 m/s 711 mmHg 41%
06:00 +28°C° 0 mm 1 m/s 711 mmHg 34%
07:00 +31°C° 0 mm 1 m/s 712 mmHg 27%
08:00 +36°C° 0 mm 2 m/s 712 mmHg 20%
09:00 +38°C° 0 mm 3 m/s 712 mmHg 19%
10:00 +40°C° 0 mm 4 m/s 712 mmHg 17%
11:00 +42°C° 0 mm 5 m/s 712 mmHg 15%
12:00 +42°C° 0 mm 6 m/s 712 mmHg 16%
13:00 +44°C° 0 mm 7 m/s 712 mmHg 17%
14:00 +44°C° 0 mm 7 m/s 711 mmHg 18%
15:00 +43°C° 0 mm 7 m/s 711 mmHg 20%
16:00 +40°C° 0 mm 7 m/s 710 mmHg 22%
17:00 +39°C° 0 mm 7 m/s 710 mmHg 24%
18:00 +35°C° 0 mm 6 m/s 710 mmHg 32%
19:00 +33°C° 0 mm 5 m/s 710 mmHg 40%
20:00 +29°C° 0 mm 4 m/s 710 mmHg 48%
21:00 +28°C° 0 mm 4 m/s 710 mmHg 48%
22:00 +28°C° 0 mm 3 m/s 710 mmHg 49%
23:00 +27°C° 0 mm 3 m/s 710 mmHg 49%

12 Juillet, Dimanche

Heure Température Précipitation Vent Pression Humidité
00:00 +27°C° 0 mm 3 m/s 710 mmHg 49%
01:00 +26°C° 0 mm 3 m/s 709 mmHg 49%
02:00 +26°C° 0 mm 3 m/s 709 mmHg 48%
03:00 +26°C° 0 mm 3 m/s 709 mmHg 47%
04:00 +26°C° 0 mm 3 m/s 709 mmHg 46%
05:00 +26°C° 0 mm 3 m/s 709 mmHg 45%
06:00 +29°C° 0 mm 3 m/s 710 mmHg 39%
07:00 +33°C° 0 mm 4 m/s 710 mmHg 33%
08:00 +35°C° 0 mm 5 m/s 711 mmHg 27%
09:00 +38°C° 0 mm 6 m/s 711 mmHg 26%
10:00 +39°C° 0 mm 7 m/s 711 mmHg 24%
11:00 +41°C° 0 mm 8 m/s 711 mmHg 22%
12:00 +41°C° 0 mm 8 m/s 710 mmHg 22%
13:00 +42°C° 0 mm 9 m/s 710 mmHg 22%
14:00 +42°C° 0 mm 9 m/s 710 mmHg 23%
15:00 +39°C° 0 mm 9 m/s 709 mmHg 26%
16:00 +38°C° 0 mm 9 m/s 709 mmHg 29%
17:00 +35°C° 0 mm 8 m/s 709 mmHg 32%
18:00 +33°C° 0 mm 7 m/s 709 mmHg 41%
19:00 +30°C° 0 mm 7 m/s 709 mmHg 49%
20:00 +27°C° 0 mm 6 m/s 708 mmHg 57%
21:00 +27°C° 0 mm 5 m/s 708 mmHg 59%
22:00 +26°C° 0 mm 5 m/s 708 mmHg 61%
23:00 +26°C° 0 mm 4 m/s 708 mmHg 63%
Voir plus